Location: Errabaliem
(16.8108°N, 80.4255°E)
Time: 06:48:50
(UTC+00:00)

SL-16 R/B - Pass Details

Date: 05 August 2024
Orbit: 985 x 1006 km, 99.7° (Epoch: 10 September)

Event Time Altitude Azimuth Distance (km) Brightness Sun altitude
Exits shadow 21:00:54 26° 57° (ENE) 1,817 4.3 -42.5°
Drops below altitude 10° 21:05:01 10° 16° (NNE) 2,737 5.3 -41.8°
Sets 21:07:50 0° 5° (N) 3,687 6.0 -41.3°
